TimeCDT,TemperatureF,Dew PointF,Humidity,Sea Level PressureIn,VisibilityMPH,Wind Direction,Wind SpeedMPH,Gust SpeedMPH,PrecipitationIn,Events,Conditions,WindDirDegrees,DateUTC
12:54 AM,69.1,59.0,70,29.88,10.0,SSE,6.9,-,N/A,,Clear,160,2013-04-10 05:54:00
1:54 AM,69.1,59.0,70,29.88,10.0,South,6.9,-,N/A,,Clear,190,2013-04-10 06:54:00
2:54 AM,69.1,59.0,70,29.87,10.0,South,8.1,-,N/A,,Clear,180,2013-04-10 07:54:00
3:54 AM,69.1,59.0,70,29.88,10.0,South,5.8,-,N/A,,Clear,190,2013-04-10 08:54:00
4:54 AM,70.0,60.1,71,29.88,10.0,South,8.1,-,N/A,,Clear,190,2013-04-10 09:54:00
5:54 AM,68.0,60.1,76,29.90,10.0,South,6.9,-,N/A,,Partly Cloudy,180,2013-04-10 10:54:00
6:54 AM,70.0,61.0,73,29.91,10.0,South,9.2,-,N/A,,Overcast,180,2013-04-10 11:54:00
7:54 AM,70.0,61.0,73,29.93,10.0,South,8.1,-,N/A,,Mostly Cloudy,190,2013-04-10 12:54:00
8:54 AM,73.0,62.1,68,29.93,10.0,South,12.7,-,N/A,,Mostly Cloudy,190,2013-04-10 13:54:00
9:54 AM,77.0,63.0,62,29.93,10.0,South,18.4,27.6,N/A,,Partly Cloudy,190,2013-04-10 14:54:00
10:54 AM,79.0,63.0,58,29.92,10.0,SSW,19.6,27.6,N/A,,Clear,200,2013-04-10 15:54:00
11:54 AM,80.6,62.6,54,29.91,10.0,South,21.9,31.1,N/A,,Clear,190,2013-04-10 16:54:00
12:54 PM,82.0,63.0,52,29.88,10.0,South,15.0,23.0,N/A,,Scattered Clouds,180,2013-04-10 17:54:00
1:54 PM,81.0,62.1,52,29.87,10.0,SSW,16.1,26.5,N/A,,Mostly Cloudy,210,2013-04-10 18:54:00
2:54 PM,81.0,61.0,50,29.84,10.0,SSW,16.1,23.0,N/A,,Mostly Cloudy,200,2013-04-10 19:54:00
3:54 PM,82.9,60.1,46,29.81,10.0,SSW,16.1,26.5,N/A,,Scattered Clouds,200,2013-04-10 20:54:00
4:54 PM,82.0,60.1,47,29.78,10.0,SSW,13.8,21.9,N/A,,Partly Cloudy,200,2013-04-10 21:54:00
5:54 PM,82.0,59.0,45,29.76,10.0,South,17.3,24.2,N/A,,Partly Cloudy,170,2013-04-10 22:54:00
6:54 PM,80.1,57.9,47,29.73,10.0,South,9.2,17.3,N/A,,Clear,180,2013-04-10 23:54:00
7:54 PM,78.1,57.9,50,29.72,10.0,South,5.8,-,N/A,,Clear,180,2013-04-11 00:54:00
8:54 PM,77.0,57.9,52,29.72,10.0,SSE,6.9,-,N/A,,Clear,150,2013-04-11 01:54:00
9:54 PM,75.9,57.9,54,29.74,10.0,South,6.9,-,N/A,,Partly Cloudy,170,2013-04-11 02:54:00
10:54 PM,77.0,57.0,50,29.71,10.0,South,11.5,18.4,N/A,,Clear,180,2013-04-11 03:54:00
11:54 PM,77.0,55.9,48,29.72,10.0,South,9.2,19.6,N/A,,Mostly Cloudy,180,2013-04-11 04:54:00